一网星座-0578星 (ONEWEB-0578)

导读 | 星芒AI

ONEWE-0578 是 OneWeb 卫星通信星座计划中的一颗低轨通信卫星,旨在为全球提供高速互联网服务。该卫星由空中客车防务与航天公司制造,采用统一的卫星平台,具备高容量和高效率的通信能力。它运行在约 1200 公里的近地轨道,是 OneWeb 打造全球宽带网络的重要组成部分。该星座计划支持偏远和农村地区的互联网接入,促进数字包容。ONEWE-0578 的发射和运行有助于提升 OneWeb 的全球覆盖能力和服务稳定性。

基本信息
目录编号:
56067
目录名称:
ONEWEB-0578
国际标识:
2023-043X
轨道中心:
EARTH
卫星名称:
一网星座-0578星
卫星全名:
一网星座-0578星 (ONEWEB-0578)
卫星状态:
在轨 (已飞行996 天)
发射日期:
2023-03-26 UTC
国别 :
英国 (GB)
星等 :
--
轨道信息
数据来源 国际轨道数据 AOE轨道数据
星历时间 2025-12-15T15:29:50+0800
19小时前
查看轨道信息
2025-12-13T08:00:00+0800
3天前
查看轨道信息
半长轴 7555.898km 7555.91km
偏心率 0.0001559 0.0001329
轨道倾角 87.922° 87.926°
近地点辐角 80.132° 82.920°
升交点赤经 280.649° 281.114°
平近点角 279.999° 79.868°
近地点 1176.585km 1176.77km
远地点 1178.941km 1178.78km
周期 108.940分钟 108.941分钟
每日圈数 13.21824 13.218209
详细信息
平衡模式:
三轴稳定
覆盖范围:
全球
运营商:
一网卫星公司
运营商所在国:
英国
制造商(研发单位):
一网卫星公司
制造商所在国:
英国
使用方式:
暂无
卫星简介
OneWeb卫星网络由648颗重约125公斤的微型卫星组成,运行在1200公里的轨道上。 每颗卫星都能够提供至少每秒8千兆位的吞吐量,以使用其高吞吐量的Ku频段有效载荷为家庭和移动平台提供互联网接入。该卫星仍在工作。
2D轨道图
3D轨道图
轨道高度分析图
轨道倾角分析图
轨道综合分析图
查看轨道综合分析图